O3b FM10

operational
NORAD ID: 40348 Int'l Des: 2014-083 Owner: O3B Country: UK
MEOCIRCULAR

Über O3b FM10

Beschreibung wird geladen...

Live-Position

3D-Globus wird geladen...

Nächste Überflüge

Höhenverlauf

Altitude vs Time

uPlot chart will show altitude changes over time

Zweizeiliger Elementsatz

1 40348U 14083A 26061.01795576 -.00000029 00000-0 00000+0 0 9991
2 40348 0.0435 346.9531 0002685 352.3225 20.7060 5.00115191204539
Epoch: 2. März 2026 • Age: 37 hours

Aktueller Status

Höhe 8067.7 km
Geschwindigkeit 5.25 km/s
Subsatellitenpunkt -0.01°S, 158.17°W
Startdatum 18. Dez. 2014
Alter 11.2 years
Typ other

Technische Details

Klassifizierung Payload
Masse 700.00 kg
Trockenmasse 500.00 kg
Gesamtmasse 700.00 kg
Länge 4.00 m
Durchmesser 2.00 m
Spannweite 12.00 m
Form Box trap+2 pan
Hersteller THALR
Bus-Typ Prisma
Phasenstatus Renamed
Besitzer/Staat O3B/UK

Große Konstellationen

Loading constellations...